Regional Weather Roundup
Issued by NWS

Home | Current Version | Previous Version | Text Only | Print | Product List | Glossary Off
Versions: 1 2 3 4 5 6 7 8 9 10 11 12 13 14 15 16 17 18 19 20 21 22 23 24 25 26 27 28 29 30 31 32 33 34 35 36 37 38 39 40 41 42 43 44 45 46 47 48 49 50

000
ASUS43 KIND 012309
RWRIN

WEATHER ROUNDUP FOR INDIANA
NATIONAL WEATHER SERVICE INDIANAPOLIS IN
700 PM EDT MON JUN 01 2015

NOTE: "FAIR" INDICATES FEW OR NO CLOUDS BELOW 12,000 FEET WITH NO
SIGNIFICANT WEATHER AND/OR OBSTRUCTIONS TO VISIBILITY.

* - STATION DOES NOT REPORT WEATHER SUCH AS PRECIPITATION OR FOG.

+ - STATION NOT QUALITY CONTROLLED BY THE NATIONAL WEATHER SERVICE.
    USE DATA WITH CAUTION...ESPECIALLY DEWPOINT AND RELATIVE
    HUMIDITY OBSERVATIONS.

INZ001>003-010>013-019-020-020000-
NORTHWEST INDIANA

CITY           SKY/WX    TMP DP  RH WIND       PRES   REMARKS
GARY /AIRPORT/ MOSUNNY   55  43  62 N17       30.21F
KNOX *+        SUNNY     61  46  59 N13       30.16R
LA PORTE +     SUNNY     60  46  59 N12       30.18S
MICHIGAN CITY+ SUNNY     54  41  62 N6        30.20F
MONTICELLO +   MOSUNNY   65  52  62 E6        30.15S
RENSSELAER +   CLOUDY    64  55  72 N6        30.16S
VALPARAISO     SUNNY     58  42  55 N10       30.18F

$$

LMZ046-743>745-020000-
SOUTHERN LAKE MICHIGAN

STATION/POSITION TIME  TEMP    WIND        PRES    WAVE
                       AIR SEA DIR/SP/G            HT
                 (UTC) (F)     (DEG/KT/KT) (MB)    (FT)
BURNS HARBOR     2300   50      20/ 14/ 16 1023.0F
MICHIGAN CITY    2300   48     360/ 12/ 14   N/A
5NW MICH CITY    2300   48 54   30/ 10/ 14   N/A     2

$$

INZ004-005-014>016-021>024-020000-
NORTH CENTRAL INDIANA

CITY           SKY/WX    TMP DP  RH WIND       PRES   REMARKS
ELKHART        SUNNY     66  41  39 NE8       30.17F
GOSHEN         MOSUNNY   65  46  50 NE8       30.16F
LOGANSPORT +   PTSUNNY   63  50  63 E9        30.16S
PERU/GRISSOM   CLOUDY    63  51  66 E9        30.15S
ROCHESTER +    PTSUNNY   64  50  59 E6        30.16S
SOUTH BEND     SUNNY     67  39  35 NE9       30.17S
WARSAW +       MOSUNNY   63  43  48 E5        30.16S

$$

INZ006>009-017-018-025>027-020000-
NORTHEAST INDIANA

CITY           SKY/WX    TMP DP  RH WIND       PRES   REMARKS
ANGOLA *+      SUNNY     63  52  67 E8        30.16F
AUBURN +       CLOUDY    61  46  59 NE8       30.18S
FORT WAYNE     CLOUDY    60  50  69 NE13      30.17S
HUNTINGTON +   PTSUNNY   60  50  68 NE6       30.17R

$$

INZ028-029-035-036-043>045-051>053-020000-
WEST CENTRAL INDIANA

CITY           SKY/WX    TMP DP  RH WIND       PRES   REMARKS
CRAWFORDSVL +  MOSUNNY   61  48  62 NE9       30.14F
GREENCASTLE +  CLOUDY    61  48  63 NE5       30.13F
LAFAYETTE      PTSUNNY   62  52  69 E8        30.15S
TERRE HAUTE    CLOUDY    62  53  72 NE5       30.13S

$$

INZ030>032-037>040-046>048-054>057-064-065-020000-
CENTRAL INDIANA

CITY           SKY/WX    TMP DP  RH WIND       PRES   REMARKS
CP ATTERBURY + CLOUDY    59  52  77 E7        30.13F
COLUMBUS       CLOUDY    57  52  82 NE8       30.14R
FISHERS *+     CLOUDY    57  52  82 NE7       30.15R
FRANKFORT +    PTSUNNY   62  53  73 NE7       30.16F
GREENWOOD *+   CLOUDY    59  48  67 E7        30.14S
INDIANAPOLIS   CLOUDY    61  50  67 NE12      30.12S
-EAGLE CREEK   CLOUDY    60  50  69 NE10      30.13S
KOKOMO *+      CLOUDY    61  52  72 NE9       30.16S
MARION +       PTSUNNY   58  49  72 E9        30.17S
MT COMFORT *+  PTSUNNY   59  46  63 NE12      30.14S
SHELBYVILLE    CLOUDY    60  52  74 NE7       30.13S
ZIONSVILLE +   PTSUNNY   60  51  70 NE10      30.15S

$$

INZ033-034-041-042-049-050-058-059-020000-
EAST CENTRAL INDIANA

CITY           SKY/WX    TMP DP  RH WIND       PRES   REMARKS
MUNCIE         CLOUDY    57  50  77 NE10      30.16R

$$

INZ060-061-067>069-081>083-085>088-020000-
SOUTHWEST INDIANA

CITY           SKY/WX    TMP DP  RH WIND       PRES   REMARKS
EVANSVILLE     CLOUDY    63  54  72 N9        30.10S
HUNTINGBURG *+ CLOUDY    61  54  77 NE8       30.10F
WASHINGTON +   CLOUDY    61  52  72 NE6       30.11F

$$

INZ062-063-066-070>080-084-089>092-020000-
SOUTH CENTRAL AND SOUTHEAST INDIANA

CITY           SKY/WX    TMP DP  RH WIND       PRES   REMARKS
BLOOMINGTON    CLOUDY    60  53  77 NE7       30.12S
MADISON *+     CLOUDY    59  52  77 NE8       30.13S
NORTH VERNON + CLOUDY    59  59 100 NE5       30.12F
SEYMOUR +      CLOUDY    61  54  77 NE9       30.11F

$$




USA.gov is the U.S. government's official web portal to all federal, state and local government web resources and services.